Location: Shenandoah County Park
(38.9356°N, 78.4524°W)
Time: 14:50:10
(UTC-05:00)

Vanguard 2 Rocket - Pass Details

Date: 05 December 2023
Orbit: 555 x 3309 km, 32.9° (Epoch: 03 March)

Event Time Altitude Azimuth Distance (km) Brightness Sun altitude
Rises 19:02:35 0° 278° (W) 7,221 12.7 -24.8°
Reaches altitude 10° 19:07:29 10° 275° (W) 6,262 12.1 -25.8°
Maximum altitude 19:26:52 58° 204° (SSW) 3,268 9.7 -29.5°
Enters shadow 19:36:52 25° 138° (SE) 3,915 9.7 -31.4°
Drops below altitude 10° 19:40:48 10° 130° (SE) 4,655 - -32.2°
Sets 19:43:52 0° 126° (SE) 5,342 - -32.8°
